Tracking 29034 objects as of 25-Jun-2024
HD Live streaming from Space Station
objects crossing your sky now

OBJECT A

Track OBJECT A now!
10-day predictions


NORAD ID: 57288
Int'l Code: 2023-095A
Perigee: 1,104.2 km
Apogee: 1,132.5 km
Inclination: 86.5 °
Period: 107.5 minutes
Semi major axis: 7489 km
RCS: Unknown
Launch date: July 9, 2023
Source: People's Republic of China (PRC)
Launch site: Jiuquan Satellite Launch Center, China (JSC)
Your satellite tracking list
Your tracking list is empty




NASA's NSSDC Master Catalog

Two Line Element Set (TLE):
1 57288U 23095A   24176.86176813  .00000066  00000-0  94295-4 0  9994
2 57288  86.5008 254.6789 0018942  47.5123 312.7617 13.39481023 47053
Source of the keplerian elements: AFSPC